Stations météo

réclame
Mon MeteoGroup
Lossiemouth, Grande-Bretagne (3068): Température de l'air & dewpoint: 09.11.2019 11:00:00 - 15.11.2019 11:00:00 (GMT)Lossiemouth, Grande-Bretagne (3068): Vitesse du vent & gusts: 09.11.2019 11:00:00 - 15.11.2019 11:00:00 (GMT)Lossiemouth, Grande-Bretagne (3068): Direction du vent: 09.11.2019 11:00:00 - 15.11.2019 11:00:00 (GMT)Lossiemouth, Grande-Bretagne (3068): reduced air pressure: 09.11.2019 11:00:00 - 15.11.2019 11:00:00 (GMT)Lossiemouth, Grande-Bretagne (3068): visibility: 09.11.2019 11:00:00 - 15.11.2019 11:00:00 (GMT)Lossiemouth, Grande-Bretagne (3068): Quantités de précipitations: 09.11.2019 11:00:00 - 15.11.2019 11:00:00 (GMT)
Date & Time tt [°C] td [°C] ff [km/h] ff [knt] fx [km/h] fx [knt] dd ppp [hPa] vv [km] rr [mm]
15.11.2019 11:00:00 7,2 4,4 16 9 - - NE 1018,9 10 0,6
15.11.2019 10:00:00 7,4 4,1 16 9 - - NE 1019,1 10 0,0
15.11.2019 09:00:00 7,4 3,7 18 10 - - ENE 1018,8 10 0,0
15.11.2019 08:00:00 7,0 2,9 15 8 - - NE 1018,2 10 0,0
15.11.2019 07:00:00 5,6 4,0 16 9 - - N 1017,7 10 0,0
15.11.2019 06:00:00 6,3 4,4 22 12 - - N 1017,6 10 0,2
15.11.2019 05:00:00 6,3 4,5 22 12 - - NNE 1017,4 10 1,8
15.11.2019 04:00:00 6,0 4,4 21 11 - - NNE 1017,2 10 0,6
15.11.2019 03:00:00 6,3 4,3 29 16 - - N 1017,1 10 0,0
15.11.2019 02:00:00 6,3 3,6 28 15 - - NNW 1016,6 10 0,0
15.11.2019 01:00:00 5,8 3,0 28 15 - - NNW 1016,2 10 0,0
15.11.2019 00:00:00 5,8 3,1 26 14 - - N 1016,2 10 0,0
14.11.2019 23:00:00 6,2 3,1 34 18 - - N 1015,9 10 0,0
14.11.2019 22:00:00 5,6 2,9 34 18 - - N 1015,4 10 0,0
14.11.2019 21:00:00 5,9 2,7 34 18 52 28 N 1015,0 10 0,0
14.11.2019 20:00:00 5,7 2,5 29 16 - - N 1014,6 10 0,0
14.11.2019 19:00:00 5,8 2,7 29 16 - - N 1014,2 10 0,0
14.11.2019 18:00:00 5,3 2,4 31 17 - - NNW 1013,8 10 0,0
14.11.2019 17:00:00 5,6 2,1 29 16 54 29 NNW 1013,2 10 0,0
14.11.2019 16:00:00 5,8 2,0 34 18 - - N 1012,3 10 0,0
14.11.2019 15:00:00 5,6 2,4 35 19 46 25 N 1011,6 10 0,0
14.11.2019 14:00:00 6,2 1,6 28 15 - - N 1010,9 10 0,0
14.11.2019 13:00:00 6,1 2,2 26 14 - - NNW 1010,5 10 0,0
14.11.2019 12:00:00 5,9 2,7 24 13 - - NNW 1010,1 10 0,0
14.11.2019 11:00:00 5,9 2,5 24 13 - - NNW 1009,5 40 0,0
14.11.2019 10:00:00 4,6 1,8 24 13 - - NNW 1009,0 10 0,0
14.11.2019 09:00:00 4,5 2,0 22 12 - - NNW 1008,2 10 0,0
14.11.2019 08:00:00 4,4 2,0 21 11 - - NW 1007,2 10 0,0
14.11.2019 07:00:00 3,8 1,5 22 12 - - NW 1006,4 10 0,0
14.11.2019 06:00:00 3,6 1,9 21 11 - - NW 1005,5 10 0,0
14.11.2019 05:00:00 4,3 0,5 24 13 - - NNW 1004,6 35 0,0
14.11.2019 04:00:00 4,3 1,1 24 13 - - NNW 1004,0 10 0,0
14.11.2019 03:00:00 3,9 1,7 21 11 - - NNW 1003,6 10 2,0
14.11.2019 02:00:00 3,5 0,7 26 14 - - NE 1003,2 10 0,0
14.11.2019 01:00:00 1,1 0,5 9 5 - - SSW 1002,3 10 0,0
14.11.2019 00:00:00 1,5 0,9 9 5 - - WNW 1001,8 10 0,0
13.11.2019 23:00:00 2,3 1,5 15 8 - - NW 1001,2 5 0,0
13.11.2019 22:00:00 0,3 0,0 9 5 - - SW 1000,3 10 0,0
13.11.2019 21:00:00 -0,3 -0,8 8 4 - - S 1000,0 10 0,0
13.11.2019 20:00:00 0,3 -0,3 5 3 - - SSW 999,2 10 0,0
13.11.2019 19:00:00 -1,2 -1,9 5 3 - - WSW 998,8 10 0,0
13.11.2019 18:00:00 0,2 -0,6 2 1 - - SW 998,1 10 0,0
13.11.2019 17:00:00 0,8 -0,7 2 1 - - SSW 997,5 10 0,0
13.11.2019 16:00:00 3,3 0,9 9 5 - - NE 996,9 10 0,0
13.11.2019 15:00:00 4,0 1,1 8 4 - - NNE 996,6 10 0,0
13.11.2019 14:00:00 4,7 1,2 4 2 - - N 996,5 10 0,0
13.11.2019 13:00:00 4,8 1,2 4 2 - - W 996,6 10 0,0
13.11.2019 12:00:00 4,2 1,4 8 4 - - SSW 996,6 10 0,0
13.11.2019 11:00:00 3,2 1,2 5 3 - - SW 996,9 10 0,0
13.11.2019 10:00:00 0,8 -0,4 4 2 - - S 997,2 10 0,0
13.11.2019 09:00:00 -0,9 -1,4 8 4 - - SW 997,6 10 0,0
13.11.2019 08:00:00 -2,8 -3,5 13 7 - - WSW 997,7 10 0,0
13.11.2019 07:00:00 -1,3 -1,9 13 7 - - WSW 997,6 40 0,0
13.11.2019 06:00:00 -0,1 -0,9 9 5 - - SW 998,1 10 0,0
13.11.2019 05:00:00 0,5 -0,3 15 8 - - WSW 998,2 10 0,0
13.11.2019 04:00:00 1,4 0,5 15 8 - - WSW 998,5 10 0,0
13.11.2019 03:00:00 2,2 1,3 18 10 - - WSW 998,8 10 0,0
13.11.2019 02:00:00 1,9 1,0 13 7 - - SW 999,1 30 0,0
13.11.2019 01:00:00 1,5 0,1 13 7 - - WSW 999,4 10 0,0
13.11.2019 00:00:00 3,4 0,4 8 4 - - NW 999,6 10 0,0
12.11.2019 23:00:00 4,3 2,5 21 11 - - NW 999,7 10 0,0
12.11.2019 22:00:00 5,1 2,3 24 13 - - NW 999,8 10 0,0
12.11.2019 21:00:00 5,2 2,9 22 12 - - NW 999,7 10 0,0
12.11.2019 20:00:00 5,5 2,1 16 9 - - NW 999,5 10 0,0
12.11.2019 19:00:00 5,6 2,7 18 10 - - NW 999,5 10 0,0
12.11.2019 18:00:00 5,7 2,3 21 11 - - NNW 999,1 10 0,0
12.11.2019 17:00:00 5,9 3,0 22 12 - - N 998,9 10 0,0
12.11.2019 16:00:00 6,0 3,5 24 13 - - NNW 998,5 10 0,0
12.11.2019 15:00:00 6,3 3,4 31 17 - - N 998,1 10 0,0
12.11.2019 14:00:00 6,8 3,9 31 17 52 28 N 997,3 10 0,0
12.11.2019 13:00:00 6,7 5,1 39 21 55 30 N 996,6 10 0,0
12.11.2019 12:00:00 6,7 5,6 41 22 54 29 N 996,2 10 0,4
12.11.2019 11:00:00 7,3 6,0 35 19 50 27 N 995,5 10 0,8
12.11.2019 10:00:00 7,1 5,4 37 20 54 29 NNE 995,0 15 0,0
12.11.2019 09:00:00 7,5 5,1 42 23 57 31 NNE 994,1 10 0,0
12.11.2019 08:00:00 7,7 5,9 44 24 65 35 NNE 993,2 10 0,2
12.11.2019 07:00:00 7,7 6,1 46 25 63 34 NNE 992,1 7 0,0
12.11.2019 06:00:00 8,3 6,3 42 23 61 33 NNE 991,3 10 0,2
12.11.2019 05:00:00 7,9 6,9 39 21 57 31 NNE 990,4 7 0,4
12.11.2019 04:00:00 8,6 6,2 41 22 55 30 NNE 989,6 10 0,2
12.11.2019 03:00:00 8,5 6,2 31 17 50 27 NE 989,1 10 2,2
12.11.2019 02:00:00 6,8 6,1 16 9 - - N 988,9 3,5 3,2
12.11.2019 01:00:00 5,7 4,7 15 8 - - E 989,2 6 3,2
12.11.2019 00:00:00 4,1 3,8 11 6 - - WSW 989,0 4,0 2,2
11.11.2019 23:00:00 3,3 2,9 16 9 - - WSW 989,4 10 0,4
11.11.2019 22:00:00 2,5 2,0 15 8 - - SW 989,6 10 0,0
11.11.2019 21:00:00 2,0 1,7 11 6 - - WSW 989,7 10 0,0
11.11.2019 20:00:00 1,5 1,1 11 6 - - WSW 989,8 35 0,0
11.11.2019 19:00:00 1,2 0,7 13 7 - - WSW 989,7 10 0,0
11.11.2019 18:00:00 1,6 0,8 11 6 - - SW 989,7 10 0,0
11.11.2019 17:00:00 3,5 2,7 13 7 - - SW 989,4 10 0,0
11.11.2019 16:00:00 3,7 2,7 13 7 - - SW 989,4 10 0,2
11.11.2019 15:00:00 4,3 3,2 15 8 - - WSW 989,2 10 0,0
11.11.2019 14:00:00 4,8 3,4 16 9 - - SW 989,3 10 0,0
11.11.2019 13:00:00 5,8 3,9 4 2 - - S 989,4 10 0,0
11.11.2019 12:00:00 5,3 3,4 8 4 - - E 989,6 35 0,0
11.11.2019 11:00:00 5,3 3,1 8 4 - - E 990,1 35 0,2
11.11.2019 10:00:00 5,0 3,1 8 4 - - ESE 990,3 10 0,0
11.11.2019 09:00:00 5,0 2,8 9 5 - - E 990,3 10 0,0
11.11.2019 08:00:00 4,4 2,2 8 4 - - E 990,6 10 0,0
11.11.2019 07:00:00 3,9 1,9 13 7 - - ESE 990,8 10 0,0
11.11.2019 06:00:00 4,4 2,4 18 10 - - ESE 991,4 10 0,0
11.11.2019 05:00:00 4,1 2,4 16 9 - - ESE 992,7 10 0,0
11.11.2019 04:00:00 3,6 2,0 18 10 - - ESE 993,8 10 0,0
11.11.2019 03:00:00 3,4 1,7 22 12 - - ESE 995,3 10 0,0
11.11.2019 02:00:00 3,2 1,7 26 14 - - ESE 996,9 10 0,0
11.11.2019 01:00:00 3,0 1,7 21 11 - - ESE 998,9 10 0,4
11.11.2019 00:00:00 3,4 1,2 21 11 - - ESE 1000,9 10 0,4
10.11.2019 23:00:00 3,7 -0,2 15 8 - - ESE 1002,6 10 0,0
10.11.2019 22:00:00 3,8 -1,2 18 10 - - ESE 1004,1 10 0,0
10.11.2019 21:00:00 2,9 -0,4 13 7 - - SE 1006,4 30 0,0
10.11.2019 20:00:00 2,5 -0,4 13 7 - - SE 1007,6 10 0,0
10.11.2019 19:00:00 2,7 -0,5 16 9 - - E 1008,8 10 0,0
10.11.2019 18:00:00 1,2 -0,5 8 4 - - SE 1010,6 10 0,0
10.11.2019 17:00:00 2,0 -0,3 11 6 - - SE 1011,6 10 0,0
10.11.2019 16:00:00 3,5 0,3 9 5 - - ESE 1012,6 10 0,0
10.11.2019 15:00:00 4,6 1,2 5 3 - - E 1013,8 10 0,0
10.11.2019 14:00:00 4,4 0,7 2 1 - - S 1015,3 35 0,0
10.11.2019 13:00:00 4,2 0,6 4 2 - - S 1016,3 10 0,0
10.11.2019 12:00:00 3,8 0,7 11 6 - - SW 1017,0 10 0,0
10.11.2019 11:00:00 3,4 0,5 9 5 - - SW 1017,6 10 0,0
10.11.2019 10:00:00 1,4 0,0 11 6 - - SW 1018,3 10 0,0
10.11.2019 09:00:00 1,0 -0,5 15 8 - - WSW 1018,7 10 0,0
10.11.2019 08:00:00 1,7 -0,1 15 8 - - WSW 1018,2 10 0,0
10.11.2019 07:00:00 -0,5 -1,5 13 7 - - SW 1017,6 10 0,0
10.11.2019 06:00:00 -0,6 -1,8 13 7 - - WSW 1016,8 10 0,0
10.11.2019 05:00:00 5,8 -3,1 16 9 - - NE 1016,8 10 0,0
10.11.2019 04:00:00 5,6 -3,4 11 6 - - ENE 1016,2 10 0,0
10.11.2019 03:00:00 6,3 -0,4 21 11 - - ENE 1015,9 10 0,0
10.11.2019 02:00:00 5,7 0,2 15 8 - - NE 1015,5 10 0,0
10.11.2019 01:00:00 5,6 -1,2 18 10 - - NNE 1015,4 10 0,0
10.11.2019 00:00:00 5,3 -2,1 21 11 - - NE 1015,1 10 0,0
09.11.2019 23:00:00 5,1 -1,6 18 10 - - NE 1014,2 10 0,0
09.11.2019 22:00:00 0,8 -0,7 9 5 - - WSW 1014,0 10 0,0
09.11.2019 21:00:00 0,2 -1,3 8 4 - - SSW 1013,1 10 0,0
09.11.2019 20:00:00 1,1 0,1 9 5 - - SSW 1012,5 10 0,0
09.11.2019 19:00:00 1,1 0,2 2 1 - - SW 1011,9 10 0,0
09.11.2019 18:00:00 1,4 -0,3 5 3 - - SW 1011,3 10 0,2
09.11.2019 17:00:00 1,8 0,1 4 2 - - S 1010,6 10 0,0
09.11.2019 16:00:00 2,9 0,7 8 4 - - SSE 1009,9 10 0,0
09.11.2019 15:00:00 3,2 0,3 5 3 - - S 1009,3 10 0,0
09.11.2019 14:00:00 4,1 0,9 11 6 - - SE 1009,1 10 0,0
09.11.2019 13:00:00 5,2 1,7 11 6 - - SE 1008,9 40 0,0
09.11.2019 12:00:00 3,9 0,9 13 7 - - SE 1008,8 50 0,0
09.11.2019 11:00:00 2,4 0,3 9 5 - - SE 1008,6 10 0,0

tt = Température de l'air
td = dewpoint
ff = Vitesse du vent
fx = gusts
dd = Direction du vent
ppp = reduced air pressure
vv = visibility
rr = Quantités de précipitations

stations d'obs. à proximité